User: anonymous   Login
Location: Penticton
(49.5000°N, 119.5830°W)
Time: 00:56:24
(UTC-08:00)
Language:

NOSS 3-4 (A) - Orbit

View from above orbital plane
View from above orbital plane
View from above satellite
View from above satellite

Ground track
Ground track

The orbit data is extracted from the following two-line orbital elements,

1 31701U 07027A   17055.84098982 0.00000000  00000-0  00000-0 0    07
2 31701  63.4029   9.7707 0179000  24.9789 335.0211 13.40725208    01
Epoch (UTC): 24 February 2017 20:11:01
Eccentricity: 0.0179000
inclination: 63.4029°
perigee height: 972 km
apogee height: 1240 km
right ascension of ascending node: 9.7707°
argument of perigee: 24.9789°
revolutions per day: 13.40725208
mean anomaly at epoch: 335.0211°
orbit number at epoch: 0

The dashed part of the orbit path shows where the satellite is in the earth's shadow,  

DLR